Location: Anciles
(42.5833°N, 0.5167°E)
Time: 06:39:51
(UTC+00:00)

Cosmos 1812 - Pass Details

Date: 10 December 2019
Orbit: 516 x 523 km, 82.5° (Epoch: 26 January)

Event Time Altitude Azimuth Distance (km) Brightness Sun altitude
Rises 17:32:28 0° 199° (SSW) 2,638 6.9 -12.1°
Reaches altitude 10° 17:34:38 10° 204° (SSW) 1,755 6.0 -12.5°
Maximum altitude 17:38:23 50° 281° (W) 671 3.6 -13.1°
Drops below altitude 10° 17:42:11 10° 358° (N) 1,771 5.2 -13.8°
Sets 17:44:23 0° 3° (N) 2,664 6.1 -14.2°
